User: anonymous   Login
Location: Unspecified
(0.0000°N, 0.0000°E)
Time: 17:01:51
(UTC+02:00)
Language:

NOSS 3-3 (A) - Orbit

View from above orbital plane
View from above orbital plane
View from above satellite
View from above satellite

Ground track
Ground track

The orbit data is extracted from the following two-line orbital elements,

1 28537U 05004A   17098.89729466 0.00000000  00000-0  00000-0 0    03
2 28537  63.4244   5.0244 0260000 358.3638   1.6362 13.40728360    01
Epoch (UTC): 08 April 2017 21:32:06
Eccentricity: 0.0260000
inclination: 63.4244°
perigee height: 912 km
apogee height: 1301 km
right ascension of ascending node: 5.0244°
argument of perigee: 358.3638°
revolutions per day: 13.40728360
mean anomaly at epoch: 1.6362°
orbit number at epoch: 0

The dashed part of the orbit path shows where the satellite is in the earth's shadow,  

DLR